Content
SEND FEEDBACK

Daily
Averages
Monthly
Summary
United States of America

DODGE, NEBRASKA


Home > North America > United States > Nebraska
Elevation: 1400 feet     Latitude: 41 43N     Longitude: 096 53W

WEATHER
 
SELECT A DAY
Number of Records: 432,866;   Date Range: 11/7/95 - 8/30/14
 
SHARE

PRINT THIS DATA

[ ← Previous Day ]
WEATHER ALMANAC - JANUARY 31, 2013
[ Next Day → ]
[ °C ]   °F
Weather ElementAverageHighLow
Temperature7.1 °F13.1 °F (12:35 am) (11:35 pm)
Dewpoint-1.1 °F8.4 °F (12:35 am)-6 °F (10:35 pm)
Humidity69.5 %82 % (12:35 am)58 % (3:55 pm)
Barometer30.21 in30.41 in (10:35 pm)29.94 in (12:35 am)
Wind Speed16 mph32.2 mph (10:15 am)
Wind Gust40.3 mph (10:35 am)
Weather ElementAverage
Visibility10 mi
Wind DirectionNW (309.7 °)

Weather ElementTotal
Precipitation---
Heating Degree Days58.5 (Base 65)
Averaged from 71 records on January 31, 2013
WEATHER CONDITIONS BREAKOUT
WIND DIRECTION BREAKOUT
WEATHER BY HOUR - JANUARY 31, 2013
[ °C ]   °F
Local TimeTemperatureDewpointHumidityBarometerVisibilityWind DirectionWind SpeedGust SpeedPrecipitationEventsConditions
12:35 AM13.1 °F8.4 °F82 %29.94 in10.0 miNW (320°)16.1 mphOvercast
12:55 AM13.1 °F8.4 °F82 %29.94 in10.0 miNW (320°)12.7 mphOvercast
1:15 AM13.1 °F8.1 °F80 %29.94 in10.0 miNNW (330°)13.8 mph18.4 mphOvercast
1:35 AM12.2 °F6.6 °F78 %29.96 in10.0 miNW (320°)13.8 mph21.9 mphOvercast
1:55 AM11.5 °F5.4 °F76 %29.97 in10.0 miNW (310°)17.3 mph23.0 mphMostly Cloudy
2:15 AM10.4 °F4.5 °F77 %29.98 in10.0 miNW (310°)12.7 mphMostly Cloudy
2:35 AM10.2 °F4.5 °F78 %29.97 in10.0 miNW (310°)15.0 mphScattered Clouds
2:55 AM9.9 °F4.5 °F79 %29.98 in10.0 miNW (310°)11.5 mphMostly Cloudy
3:15 AM9.1 °F3.7 °F79 %29.98 in10.0 miNW (310°)10.4 mphScattered Clouds
3:35 AM8.8 °F3.6 °F79 %29.98 in10.0 miWNW (300°)15.0 mphClear
3:55 AM8.6 °F3.2 °F79 %29.98 in10.0 miWNW (300°)11.5 mphClear
4:15 AM8.6 °F2.3 °F76 %29.99 in10.0 miNW (310°)11.5 mphClear
4:35 AM8.6 °F2.3 °F76 %30.00 in10.0 miWNW (300°)17.3 mphClear
4:55 AM8.2 °F2.3 °F77 %30.01 in10.0 miNW (310°)11.5 mphClear
5:15 AM8.6 °F2.3 °F76 %30.02 in10.0 miNW (310°)17.3 mphScattered Clouds
5:35 AM8.8 °F2.3 °F75 %30.03 in10.0 miNW (310°)15.0 mphOvercast
5:55 AM9.0 °F2.1 °F74 %30.03 in10.0 miNW (310°)13.8 mph20.7 mphOvercast
6:15 AM8.4 °F1.8 °F74 %30.04 in10.0 miNW (310°)15.0 mphOvercast
6:35 AM7.7 °F1.4 °F75 %30.05 in10.0 miWNW (300°)9.2 mphScattered Clouds
6:55 AM7.7 °F0.5 °F72 %30.06 in10.0 miWNW (300°)15.0 mph18.4 mphClear
7:15 AM7.3 °F-0.8 °F69 %30.07 in10.0 miWNW (300°)15.0 mphScattered Clouds
7:35 AM6.8 °F-0.4 °F72 %30.09 in10.0 miWNW (300°)15.0 mphScattered Clouds
7:55 AM6.8 °F-0.6 °F72 %30.09 in10.0 miWNW (300°)12.7 mphClear
8:15 AM7.5 °F-0.6 °F70 %30.10 in10.0 miNW (310°)15.0 mph18.4 mphClear
8:35 AM7.5 °F-1.3 °F67 %30.12 in10.0 miNW (310°)17.3 mph26.5 mphClear
8:55 AM7.7 °F-1.5 °F66 %30.14 in10.0 miWNW (300°)26.5 mph31.1 mphScattered Clouds
9:15 AM7.7 °F-1.5 °F66 %30.16 in10.0 miWNW (300°)24.2 mph29.9 mphScattered Clouds
9:35 AM7.3 °F-2.0 °F66 %30.19 in10.0 miNW (310°)28.8 mph33.4 mphMostly Cloudy
9:55 AM7.5 °F-2.0 °F65 %30.20 in10.0 miNW (310°)29.9 mph39.1 mphOvercast
10:15 AM7.3 °F-2.2 °F65 %30.22 in10.0 miNW (310°)32.2 mph38.0 mphOvercast
10:35 AM7.5 °F-2.6 °F63 %30.23 in10.0 miNW (320°)26.5 mph40.3 mphOvercast
10:55 AM7.9 °F-2.2 °F64 %30.25 in10.0 miNW (310°)25.3 mph38.0 mphMostly Cloudy
11:15 AM8.1 °F-2.0 °F64 %30.25 in10.0 miNW (310°)26.5 mph32.2 mphScattered Clouds
11:35 AM8.6 °F-1.3 °F64 %30.26 in10.0 miNW (320°)21.9 mph31.1 mphScattered Clouds
11:55 AM8.6 °F-2.0 °F62 %30.27 in10.0 miNW (310°)27.6 mph33.4 mphScattered Clouds
12:15 PM9.0 °F-2.0 °F61 %30.27 in10.0 miNW (320°)25.3 mph32.2 mphScattered Clouds
12:35 PM9.7 °F-1.1 °F62 %30.28 in10.0 miNW (310°)26.5 mph32.2 mphMostly Cloudy
12:55 PM9.7 °F-1.1 °F62 %30.28 in10.0 miNW (310°)25.3 mph34.5 mphMostly Cloudy
1:15 PM9.7 °F-1.5 °F61 %30.28 in10.0 miNW (320°)27.6 mph35.7 mphScattered Clouds
1:35 PM9.5 °F-1.8 °F60 %30.28 in10.0 miNW (320°)25.3 mph35.7 mphScattered Clouds
1:55 PM9.9 °F-1.7 °F60 %30.28 in10.0 miNW (310°)26.5 mph33.4 mphClear
2:15 PM10.2 °F-1.7 °F59 %30.28 in10.0 miNW (320°)24.2 mph32.2 mphClear
2:35 PM10.4 °F-1.5 °F59 %30.29 in10.0 miNW (320°)26.5 mph33.4 mphClear
2:55 PM10.4 °F-0.8 °F61 %30.30 in10.0 miNW (310°)19.6 mph29.9 mphScattered Clouds
3:15 PM10.2 °F-1.5 °F59 %30.30 in10.0 miNW (310°)21.9 mph25.3 mphScattered Clouds
3:35 PM9.5 °F-2.0 °F60 %30.31 in10.0 miNW (320°)21.9 mph28.8 mphClear
3:55 PM9.3 °F-2.7 °F58 %30.31 in10.0 miWNW (300°)17.3 mph25.3 mphClear
4:15 PM8.8 °F-3.1 °F59 %30.32 in10.0 miNW (320°)21.9 mphClear
4:35 PM8.4 °F-3.1 °F60 %30.33 in10.0 miNW (320°)19.6 mphClear
4:55 PM8.1 °F-3.3 °F60 %30.33 in10.0 miNW (310°)17.3 mph20.7 mphClear
5:15 PM7.5 °F-3.8 °F60 %30.34 in10.0 miNW (320°)18.4 mphClear
5:35 PM6.4 °F-4.4 °F61 %30.34 in10.0 miNW (320°)16.1 mph20.7 mphClear
5:55 PM5.7 °F-4.4 °F63 %30.35 in10.0 miNW (320°)13.8 mph17.3 mphClear
6:15 PM5.0 °F-4.4 °F65 %30.35 in10.0 miNW (320°)10.4 mphClear
6:35 PM4.6 °F-4.5 °F66 %30.36 in10.0 miNW (320°)9.2 mphClear
6:55 PM4.1 °F-4.5 °F67 %30.36 in10.0 miNNW (330°)5.8 mphClear
7:15 PM3.4 °F-4.9 °F68 %30.37 in10.0 miNW (320°)8.1 mphClear
7:35 PM3.2 °F-4.5 °F70 %30.37 in10.0 miNW (320°)9.2 mphClear
7:55 PM3.0 °F-4.4 °F71 %30.37 in10.0 miNW (320°)9.2 mphClear
8:15 PM2.3 °F-4.9 °F72 %30.37 in10.0 miNW (310°)6.9 mphClear
8:35 PM2.1 °F-4.4 °F74 %30.37 in10.0 miNW (320°)6.9 mphClear
8:55 PM2.3 °F-4.9 °F72 %30.38 in10.0 miNW (320°)4.6 mphClear
9:15 PM1.0 °F-5.4 °F74 %30.39 in10.0 miWNW (300°)5.8 mphClear
9:35 PM0.9 °F-5.3 °F75 %30.40 in10.0 miWNW (300°)5.8 mphClear
9:55 PM0.9 °F-5.8 °F74 %30.40 in10.0 miWNW (290°)4.6 mphClear
10:15 PM0.9 °F-5.4 °F75 %30.40 in10.0 miWNW (300°)5.8 mphClear
10:35 PM0.3 °F-6.0 °F75 %30.41 in10.0 miWest (280°)5.8 mphClear
10:55 PM0.3 °F-5.6 °F76 %30.40 in10.0 miWNW (290°)4.6 mphClear
11:15 PM0.3 °F-5.6 °F76 %30.41 in10.0 miWNW (290°)5.8 mphClear
11:35 PM0.0 °F-5.3 °F79 %30.40 in10.0 miWNW (290°)4.6 mphClear
11:55 PM0.5 °F-4.9 °F78 %30.41 in10.0 miWest (270°)4.6 mphClear
Hourly data recorded from KFET, located miles away from Dodge, Nebraska







STORIES FROM OUR PARTNERS